[[{"header":{"parameterUnit":"m.s-1","parameterCategory":1,"la1":30.2991,"la2":30.254,"lo1":-89.0895,"lo2":-89.0444,"dy":0.0017,"dx":0.0017,"nx":28,"ny":28,"refTime":"2025-04-05T03:00:00:Z","depth":0,"parameterNumber":2,"parameterNumberName":"U-component_of_WINDS"},"data":[0,0,0,0,0,0,0,0,0,0,0,0,0,0,0,0,0,0,0,0,0,0,0,0,0,0,0,0,0,0,0,0,0,0,0,0,0,0,0,0,0,0,0,0,0,0,0,0,0,0,0,0,0,0,0,0,0,0,-6.2804,-6.2804,0,-6.2824,-6.2824,-6.2824,-6.2744,-6.2741,-6.2739,-6.2737,-6.2755,-6.2758,-6.276,0,0,0,0,0,0,0,0,0,0,0,0,0,-6.2698,-6.2701,-6.2804,-6.2804,-6.2805,-6.2824,-6.2824,-6.2824,-6.2744,-6.2741,-6.2738,-6.2736,-6.2754,-6.2757,-6.276,0,0,0,0,0,0,0,0,0,0,0,0,0,-6.2734,-6.2701,-6.2804,-6.2767,-6.2764,-6.2824,-6.2824,-6.2824,-6.2745,-6.2741,-6.2738,-6.2734,-6.2753,-6.2757,-6.2761,-6.2857,0,0,-6.2773,-6.2775,0,0,0,0,0,0,0,0,-6.2732,-6.2738,-6.2772,-6.277,-6.2766,-6.2778,-6.2793,-6.2835,-6.2746,-6.2752,-6.2737,-6.2733,-6.2765,-6.2768,-6.2779,-6.2857,-6.2858,-6.2774,-6.2776,-6.2778,-6.2779,0,0,0,0,0,0,0,-6.2729,-6.2736,-6.2812,-6.2773,-6.2769,-6.275,-6.2751,-6.2801,-6.2778,-6.2751,-6.2745,-6.2749,-6.2763,-6.2776,-6.2779,-6.2858,-6.2773,-6.2777,-6.2779,-6.2781,-6.3018,-6.3021,0,0,0,0,0,0,-6.2732,-6.2735,-6.2811,-6.2812,-6.274,-6.2755,-6.2756,-6.2778,-6.2777,-6.2774,-6.2752,-6.2745,-6.2771,-6.2775,-6.278,-6.2891,-6.2778,-6.2781,-6.2784,-6.3014,-6.3019,-6.3023,0,0,0,0,0,0,-6.273,-6.2739,-6.281,-6.2772,-6.278,-6.276,-6.2785,-6.278,-6.2792,-6.2778,-6.2774,-6.2769,-6.2768,-6.2774,-6.2838,-6.2891,-6.2783,-6.2787,-6.3009,-6.3015,-6.3021,-6.3115,0,0,0,0,0,0,-6.2727,-6.2739,-6.2775,-6.2774,-6.2782,-6.2869,-6.2789,-6.2783,-6.28,-6.2791,-6.2793,-6.279,-6.2766,-6.2833,-6.2843,-6.2894,-6.279,-6.3004,-6.3012,-6.3019,-6.3107,-6.3124,-6.3138,0,0,0,0,0,-6.2724,-6.28,-6.2777,-6.2786,-6.2826,-6.2872,-6.2877,-6.2848,-6.2804,-6.284,-6.2832,-6.279,-6.2885,-6.284,-6.285,-6.2904,-6.3001,-6.301,-6.3018,-6.3101,-6.3121,-6.3137,0,0,0,0,0,0,-6.2805,-6.2799,-6.2773,-6.2851,-6.2863,-6.2858,-6.2901,-6.287,-6.2893,-6.2884,-6.2847,-6.2848,-6.2919,-6.2919,-6.2869,-6.2998,-6.2935,-6.2946,-6.2994,-6.3013,-6.3028,-6.3025,-6.2793,0,0,0,0,0,-6.2833,-6.2871,-6.2863,-6.2933,-6.294,-6.2921,-6.294,-6.2917,-6.2927,-6.2931,-6.2927,-6.2939,-6.2971,-6.2993,-6.3022,-6.3109,-6.3108,-6.3152,-6.3167,-6.3179,-6.3188,-6.3234,-6.3253,-6.3051,-6.3051,-6.3051,0,0,-6.2889,-6.289,-6.2916,-6.2949,-6.2956,-6.2996,-6.2925,-6.297,-6.2999,-6.2938,-6.2998,-6.2997,-6.3007,-6.3084,-6.3117,-6.3085,-6.3245,-6.319,-6.32,-6.3202,-6.3245,-6.3264,-6.3281,-6.3057,-6.3056,-6.3055,0,0,-6.3011,-6.3017,-6.3075,-6.3084,-6.3096,-6.3083,-6.3098,-6.31,-6.3096,-6.3157,-6.3112,-6.3148,-6.3204,-6.3214,-6.3226,-6.3358,-6.332,-6.3369,-6.3446,-6.3492,-6.3508,-6.3522,-6.3568,-6.3585,-6.3379,-6.3379,-6.338,0,-6.3078,-6.3137,-6.3109,-6.3158,-6.3174,-6.3124,-6.3183,-6.3194,-6.3214,-6.3226,-6.3192,-6.3263,-6.3267,-6.3345,-6.3378,-6.339,-6.3405,-6.3366,-6.3508,-6.3522,-6.3535,-6.3578,-6.3595,-6.3385,-6.3384,-6.3384,-6.3383,0,-6.3219,-6.3261,-6.3308,-6.333,-6.3352,-6.3406,-6.3387,-6.3413,-6.3391,-6.3383,-6.3446,-6.345,-6.3479,-6.3498,-6.3475,-6.3574,-6.3553,-6.3515,-6.345,-6.356,-6.36,-6.3616,-6.3393,-6.3391,-6.3389,-6.3388,0,0,-6.3386,-6.3397,-6.3414,-6.3425,-6.3437,-6.3468,-6.3522,-6.3552,-6.3575,-6.3593,-6.3636,-6.3688,-6.3653,-6.3667,-6.3647,-6.3688,-6.3791,-6.3643,-6.3643,-6.3669,-6.3899,-6.3926,-6.3945,-6.3769,-6.3772,-6.3774,-6.3898,0,-6.3504,-6.3595,-6.3574,-6.3663,-6.3702,-6.3658,-6.3705,-6.3717,-6.3713,-6.3745,-6.374,-6.3776,-6.3728,-6.3737,-6.3776,-6.377,-6.3836,-6.3762,-6.3807,-6.3809,-6.3801,-6.3966,-6.3994,-6.4109,-6.3913,-6.3916,-6.3918,0,-6.3652,-6.3677,-6.3771,-6.378,-6.3795,-6.3837,-6.3864,-6.3897,-6.3912,-6.3905,-6.3924,-6.3897,-6.395,-6.389,-6.3963,-6.3913,-6.3931,-6.3932,-6.3936,-6.3935,-6.3867,-6.3967,-6.4145,-6.4162,-6.3942,-6.394,-6.3939,0,-6.3762,-6.382,-6.3884,-6.3895,-6.3907,-6.3938,-6.3944,-6.3955,-6.3976,-6.4001,-6.4014,-6.4045,-6.4061,-6.4086,-6.4068,-6.4026,-6.4144,-6.4082,-6.4139,-6.4139,-6.4161,-6.4159,-6.4342,-6.418,-6.418,-6.4179,-6.4179,0,-6.3893,-6.3952,-6.3934,-6.3973,-6.4038,-6.4015,-6.408,-6.4082,-6.4093,-6.4132,-6.4097,-6.4134,-6.411,-6.4146,-6.4133,-6.4195,-6.4203,-6.4199,-6.4194,-6.42,-6.42,-6.4207,-6.4198,-6.4184,-6.4183,-6.4182,-6.4181,0,-6.4024,-6.4015,-6.4082,-6.409,-6.4093,-6.4141,-6.4147,-6.4183,-6.4179,-6.4228,-6.4239,-6.423,-6.4271,-6.4257,-6.43,-6.4291,-6.437,-6.4356,-6.4364,-6.436,-6.4417,-6.441,-6.4607,-6.4631,-6.4457,-6.4459,-6.4461,0,-6.4107,-6.4151,-6.4165,-6.4189,-6.4199,-6.4238,-6.426,-6.4241,-6.4265,-6.4288,-6.4322,-6.436,-6.4388,-6.4455,-6.4453,-6.4486,-6.4471,-6.4538,-6.4475,-6.448,-6.4469,-6.4465,-6.4469,-6.4549,-6.4551,-6.4553,-6.4554,0,-6.4253,-6.4248,-6.4281,-6.4314,-6.4341,-6.4366,-6.4387,-6.4409,-6.4392,-6.4422,-6.4463,-6.4486,-6.4532,-6.4569,-6.46,-6.4607,-6.4577,-6.4575,-6.4589,-6.4593,-6.4595,-6.4593,-6.4395,-6.4569,-6.4567,-6.4566,-6.4565,-6.4565,-6.436,-6.4398,-6.4415,-6.4454,-6.4469,-6.4491,-6.4526,-6.4527,-6.4562,-6.4598,-6.4586,-6.4634,-6.4651,-6.469,-6.4701,-6.4738,-6.4712,-6.4734,-6.4738,-6.4743,-6.4749,-6.4594,-6.4744,-6.4744,-6.4744,-6.4743,-6.4743,0,-6.4502,-6.4513,-6.4549,-6.4581,-6.4613,-6.4587,-6.461,-6.4637,-6.468,-6.4699,-6.473,-6.4779,-6.4817,-6.482,-6.4855,-6.4885,-6.4872,-6.4894,-6.489,-6.4892,-6.4772,-6.4754,-6.4904,-6.4904,-6.4904,-6.4904,-6.4904,-6.4904,-6.458,-6.4643,-6.464,-6.4711,-6.4721,-6.4768,-6.4784,-6.4804,-6.4819,-6.4876,-6.4908,-6.4911,-6.4924,-6.4961,-6.4995,-6.4995,-6.5008,-6.5035,-6.5029,-6.4916,-6.49,-6.4884,-6.4868,-6.5039,-6.5039,-6.5146,-6.5147,-6.5148]},{"header":{"parameterUnit":"m.s-1","parameterCategory":1,"la1":30.2991,"la2":30.254,"lo1":-89.0895,"lo2":-89.0444,"dy":0.0017,"dx":0.0017,"nx":28,"ny":28,"refTime":"2025-04-05T03:00:00:Z","depth":0,"parameterNumber":3,"parameterNumberName":"V-component_of_WINDS"},"data":[0,0,0,0,0,0,0,0,0,0,0,0,0,0,0,0,0,0,0,0,0,0,0,0,0,0,0,0,0,0,0,0,0,0,0,0,0,0,0,0,0,0,0,0,0,0,0,0,0,0,0,0,0,0,0,0,0,0,3.3288,3.3288,0,3.3271,3.327,3.327,3.3246,3.3246,3.3246,3.3245,3.3225,3.3225,3.3225,0,0,0,0,0,0,0,0,0,0,0,0,0,3.33,3.33,3.3288,3.3287,3.3287,3.3271,3.327,3.327,3.3247,3.3246,3.3246,3.3245,3.3225,3.3225,3.3225,0,0,0,0,0,0,0,0,0,0,0,0,0,3.329,3.33,3.3288,3.3274,3.3272,3.3271,3.327,3.327,3.3247,3.3246,3.3245,3.3245,3.3225,3.3225,3.3225,3.3235,0,0,3.3224,3.3224,0,0,0,0,0,0,0,0,3.329,3.3289,3.3276,3.3275,3.3273,3.326,3.3267,3.3258,3.3247,3.3256,3.3245,3.3245,3.3237,3.3236,3.3234,3.3234,3.3233,3.3224,3.3224,3.3224,3.3224,0,0,0,0,0,0,0,3.3291,3.329,3.3281,3.3276,3.3274,3.3268,3.3266,3.3265,3.325,3.3255,3.3254,3.3252,3.3236,3.3234,3.3233,3.3233,3.3224,3.3224,3.3224,3.3223,3.3244,3.3244,0,0,0,0,0,0,3.3294,3.3291,3.3281,3.328,3.328,3.3268,3.3266,3.3265,3.325,3.3247,3.3253,3.3251,3.3235,3.3233,3.3232,3.3245,3.3224,3.3223,3.3223,3.3243,3.3244,3.3244,0,0,0,0,0,0,3.3294,3.3293,3.3282,3.3285,3.3283,3.3269,3.3268,3.3265,3.3263,3.3248,3.3245,3.3253,3.3234,3.3233,3.3235,3.3244,3.3223,3.3223,3.3242,3.3243,3.3244,3.327,0,0,0,0,0,0,3.3295,3.3294,3.3297,3.3285,3.3283,3.3285,3.3268,3.3265,3.3263,3.326,3.3248,3.3245,3.3234,3.3236,3.3235,3.3243,3.3223,3.3241,3.3242,3.3244,3.3268,3.3272,3.3275,0,0,0,0,0,3.3295,3.3304,3.3297,3.3296,3.3287,3.3286,3.3285,3.3272,3.3263,3.3267,3.3258,3.3246,3.3243,3.3236,3.3235,3.3244,3.3241,3.3242,3.3244,3.3267,3.3271,3.3275,0,0,0,0,0,0,3.3315,3.3302,3.3295,3.33,3.3294,3.3282,3.3286,3.3276,3.3272,3.327,3.3254,3.3252,3.3257,3.325,3.3243,3.3254,3.324,3.3242,3.3258,3.3262,3.3265,3.3267,3.3223,0,0,0,0,0,3.3321,3.3321,3.3309,3.3315,3.3313,3.33,3.3299,3.329,3.3283,3.3281,3.3272,3.3265,3.3264,3.3262,3.3259,3.3267,3.3265,3.3273,3.3276,3.3279,3.328,3.3287,3.3291,3.325,3.325,3.3249,0,0,3.3331,3.3324,3.3324,3.3319,3.3313,3.3315,3.3298,3.3299,3.33,3.328,3.3283,3.3277,3.3269,3.3275,3.3277,3.3269,3.3292,3.3281,3.3283,3.3283,3.3289,3.3293,3.3296,3.3251,3.325,3.325,0,0,3.335,3.3344,3.335,3.3346,3.3339,3.3331,3.3333,3.3323,3.3318,3.3321,3.3307,3.3308,3.3304,3.33,3.3297,3.332,3.3309,3.3319,3.3336,3.3342,3.3346,3.3348,3.3358,3.3362,3.3321,3.3321,3.3321,0,3.3364,3.3365,3.3353,3.3357,3.3355,3.334,3.3346,3.3342,3.3334,3.3334,3.3326,3.3324,3.3317,3.3323,3.3329,3.3327,3.3329,3.332,3.3346,3.3349,3.3351,3.336,3.3364,3.3322,3.3322,3.3322,3.3322,0,3.3383,3.3385,3.339,3.3385,3.3384,3.3389,3.3378,3.3379,3.3371,3.3364,3.3369,3.336,3.3357,3.3358,3.3349,3.3364,3.336,3.3349,3.3335,3.3357,3.3365,3.3368,3.3324,3.3324,3.3323,3.3323,0,0,3.3412,3.3404,3.3406,3.3405,3.3398,3.3399,3.3404,3.3402,3.3404,3.34,3.3404,3.3403,3.3395,3.3392,3.3383,3.3388,3.3409,3.3377,3.3377,3.3385,3.3427,3.3436,3.344,3.3402,3.3403,3.3403,3.3429,0,3.3431,3.344,3.3431,3.3441,3.3443,3.343,3.3435,3.3431,3.3426,3.3427,3.3421,3.3421,3.3409,3.3408,3.3413,3.3406,3.3418,3.3403,3.3406,3.3407,3.341,3.3444,3.3452,3.3476,3.3431,3.3432,3.3432,0,3.3454,3.3454,3.3465,3.346,3.3461,3.3465,3.3465,3.3466,3.3463,3.3458,3.3457,3.3448,3.3453,3.3439,3.3447,3.3437,3.3438,3.3435,3.3436,3.3436,3.3421,3.3446,3.3484,3.3488,3.3437,3.3437,3.3436,0,3.3476,3.3478,3.3486,3.3486,3.348,3.3484,3.3482,3.3478,3.3478,3.3478,3.3479,3.3478,3.3478,3.3478,3.3469,3.346,3.3478,3.3463,3.3476,3.3476,3.348,3.348,3.3519,3.3479,3.3479,3.3479,3.3479,0,3.3498,3.3506,3.3497,3.3501,3.351,3.3501,3.351,3.3506,3.3504,3.3508,3.3496,3.35,3.3488,3.3491,3.3483,3.3492,3.3491,3.3489,3.3487,3.349,3.3491,3.3491,3.3489,3.348,3.348,3.348,3.348,0,3.3524,3.3518,3.3526,3.3522,3.3521,3.3528,3.3524,3.3529,3.3524,3.353,3.353,3.3522,3.3526,3.3517,3.3518,3.3514,3.3527,3.3522,3.3528,3.3527,3.3541,3.354,3.3582,3.3588,3.3543,3.3544,3.3544,0,3.3539,3.3545,3.3543,3.3546,3.3545,3.3549,3.3551,3.3542,3.3544,3.3543,3.3548,3.3551,3.3553,3.356,3.3554,3.3555,3.3551,3.3566,3.3551,3.3555,3.3553,3.3553,3.3555,3.3569,3.3569,3.357,3.357,0,3.3567,3.3565,3.3568,3.3571,3.3574,3.3576,3.3577,3.358,3.3571,3.3574,3.3579,3.3581,3.3584,3.3587,3.3589,3.3586,3.3577,3.3575,3.3578,3.3582,3.3586,3.3586,3.3538,3.3574,3.3573,3.3573,3.3573,3.3573,3.3588,3.3594,3.3595,3.36,3.36,3.3602,3.3607,3.3605,3.3609,3.3612,3.3606,3.3613,3.3612,3.3613,3.3612,3.3617,3.3611,3.3615,3.3616,3.3617,3.362,3.3586,3.3617,3.3617,3.3617,3.3617,3.3617,0,3.3617,3.3617,3.3622,3.3625,3.363,3.3623,3.3624,3.3628,3.3635,3.3635,3.3639,3.3645,3.365,3.3646,3.3649,3.3654,3.3651,3.3656,3.3656,3.3656,3.3625,3.3623,3.3659,3.3659,3.3659,3.3659,3.3659,3.3659,3.3632,3.3643,3.3641,3.3653,3.3653,3.366,3.3662,3.3665,3.3666,3.3674,3.3679,3.3677,3.3676,3.368,3.3684,3.3683,3.3685,3.3692,3.369,3.3662,3.3657,3.3653,3.3651,3.3693,3.3693,3.372,3.372,3.372]}]]